Location: Temiskaming Shores
(47.4794°N, 79.7121°W)
Time: 06:33:34
(UTC-04:00)

ISS - Visible Passes

Search period start: 28 May 2022 00:00
Search period end: 07 June 2022 00:00
Orbit: 414 x 421 km, 51.6° (Epoch: 28 May)

Date Brightness Start Highest point End Pass type
(mag) Time Alt. Az. Time Alt. Az. Time Alt. Az.
28 May -2.5 22:49:00 10° W 22:51:55 28° SW 22:53:07 22° S visible
29 May -3.1 22:00:40 10° WNW 22:03:52 43° SW 22:06:43 12° SE visible
30 May -1.3 22:50:36 10° WSW 22:51:59 12° SW 22:53:16 10° SSW visible
31 May -1.7 22:01:33 10° W 22:04:00 19° SW 22:06:26 10° S visible
